Theta_e
321 323 323 321 320 322 322 322 321 319 314 312 311 311 311 312 312 312 311 311 310 307 306 307 308 309 309 311 312 310 308 310 313 310 309 307 306 309 310 312 313 313 312
321 323 322 321 322 322 322 320 315 313 312 311 308 307 307 308 310 310 310 307 306 306 307 306 307 308 308 311 310 308 306 306 308 307 306 305 305 308 307 309 311 311 311
323 322 322 322 321 321 317 314 313 312 310 308 307 307 308 309 309 309 307 306 305 304 305 306 306 308 308 309 309 307 305 305 305 305 304 305 307 306 306 306 307 309 310
323 323 322 322 320 315 313 313 312 310 308 307 307 308 307 308 308 307 305 304 303 304 303 303 303 307 307 305 304 303 303 303 304 302 303 306 304 304 303 304 305 306 307
324 323 322 318 315 314 313 312 310 308 306 306 307 307 306 306 306 305 303 302 303 303 301 301 301 305 305 304 302 301 300 301 301 303 304 303 301 302 303 305 305 306 306
323 321 316 314 314 313 311 308 305 304 305 305 307 307 307 306 305 304 302 300 301 300 299 300 301 303 305 303 301 301 301 301 303 303 301 299 301 302 304 305 305 305 305
320 317 315 314 312 309 306 304 304 305 306 306 306 307 307 305 304 301 300 300 299 299 298 301 302 303 303 303 301 300 301 301 301 302 302 300 300 303 304 305 305 305 305
318 316 314 311 308 306 305 305 305 306 305 306 305 304 304 303 302 300 300 299 299 299 299 301 302 301 302 302 301 301 302 301 301 301 301 300 301 302 304 304 304 306 305
316 313 310 308 306 305 305 306 305 304 302 305 304 303 301 300 300 300 299 299 298 301 300 299 300 301 301 301 301 300 299 299 300 300 300 300 301 302 301 301 301 304 304
313 310 308 307 305 305 306 305 305 300 301 303 304 300 299 299 300 299 298 298 298 299 299 301 300 298 297 298 298 299 299 299 298 299 300 301 301 300 301 300 301 301 302
310 308 306 305 305 305 305 302 299 300 299 302 301 299 299 299 298 298 298 298 298 299 300 300 298 296 296 297 298 298 298 298 298 299 300 300 301 301 300 300 301 301 301
307 306 306 305 304 304 303 299 299 298 298 298 299 299 299 299 298 298 299 299 299 299 300 300 296 296 296 295 296 297 297 298 298 298 299 298 299 299 300 300 300 301 301
306 306 305 305 303 303 301 300 299 299 299 298 297 298 298 298 299 299 299 299 300 300 300 299 295 297 295 295 296 296 296 296 296 296 296 296 297 297 298 299 300 300 301
306 305 305 304 303 303 302 302 301 301 300 299 298 297 297 298 298 297 297 297 298 299 300 299 296 297 296 295 295 296 295 294 293 294 295 295 297 297 297 297 298 300 300
306 305 304 303 303 303 303 302 302 302 302 301 300 297 297 298 297 297 295 295 298 299 298 297 297 297 296 296 295 295 294 293 293 292 293 294 294 296 296 297 298 298 299
306 305 304 303 304 304 304 304 303 304 303 302 301 300 298 297 297 295 296 297 298 298 298 298 297 297 296 296 295 294 294 293 292 291 291 292 293 293 295 297 298 298 299
306 306 304 304 304 304 304 304 304 304 303 302 302 301 300 298 296 296 297 298 299 298 298 297 297 296 296 296 295 294 293 292 292 291 290 289 290 292 294 295 298 298 297
306 306 305 304 304 304 304 304 303 303 303 303 302 302 302 300 299 297 298 298 298 298 297 297 297 297 296 296 295 294 294 293 292 291 290 290 289 290 292 293 295 295 295
305 305 305 304 304 304 303 302 304 304 303 303 303 301 300 299 298 298 299 298 298 298 297 297 297 297 296 296 295 295 295 294 292 290 290 290 289 289 290 292 293 295 295
304 304 304 304 304 304 302 303 302 301 301 302 301 301 299 297 298 298 298 298 298 298 298 298 298 297 297 296 296 296 296 295 293 291 289 288 289 289 289 291 292 293 294
304 303 303 304 303 302 302 302 301 300 301 301 301 300 299 298 298 298 298 298 298 298 298 298 298 298 298 297 297 297 296 296 294 292 290 289 288 289 290 291 292 293 293
304 305 305 304 303 302 303 303 301 301 301 301 301 300 300 298 297 298 298 298 298 299 299 299 298 298 299 298 298 297 297 296 295 294 292 290 289 289 291 292 292 292 293
305 305 305 305 305 305 304 303 301 301 301 301 301 300 300 300 299 298 299 299 299 299 299 299 299 299 299 299 299 298 298 297 296 295 294 294 292 290 292 291 291 292 292
305 305 305 304 304 303 303 304 302 301 301 301 301 301 300 300 300 299 299 299 299 299 299 299 299 299 299 299 299 299 298 298 296 295 294 293 293 292 291 291 290 291 291
305 305 305 304 303 303 303 303 302 302 301 301 301 301 301 301 300 300 300 300 300 300 300 300 299 299 299 299 299 299 299 298 297 295 294 293 293 292 291 289 289 289 290
305 305 304 304 303 302 302 303 303 302 302 302 302 302 302 302 301 301 301 301 300 300 300 300 300 300 300 299 299 300 299 298 297 295 295 294 294 295 293 290 288 289 290
Wind_Speed
28 24 22 22 19 16 12 10 8 5 4 6 8 9 11 11 11 11 9 10 11 12 16 17 16 16 18 14 13 12 12 8 4 9 15 19 22 24 23 21 21 20 20
27 23 23 23 21 19 14 10 8 8 7 8 8 10 11 11 9 9 10 11 12 14 15 15 15 15 15 12 10 11 13 12 7 10 15 20 22 20 21 22 22 20 21
26 25 23 18 17 17 15 12 9 6 7 6 7 10 10 9 8 9 11 12 13 14 14 15 16 15 15 13 12 14 16 16 12 10 15 18 18 20 24 23 24 21 20
26 23 19 19 20 19 15 10 8 8 6 5 7 7 7 7 7 10 12 13 14 13 15 16 16 13 13 13 13 14 16 17 16 17 16 14 17 22 22 23 27 27 28
25 23 22 22 20 16 11 12 7 6 5 4 4 6 6 8 10 12 13 14 14 14 15 17 15 12 12 13 14 17 18 17 16 15 14 15 20 22 21 18 22 27 29
27 28 28 23 17 14 14 12 7 5 4 5 4 4 5 6 8 10 12 14 12 15 17 17 16 10 12 15 16 17 14 12 13 9 9 16 17 21 20 19 22 15 5
31 30 26 21 19 17 12 8 7 6 4 4 3 2 2 4 7 9 13 14 14 16 16 14 15 12 13 17 20 16 16 15 12 11 14 18 18 20 18 17 19 18 10
26 28 25 23 20 14 9 6 4 4 4 5 4 5 5 5 7 10 14 15 17 16 13 12 13 14 14 17 20 20 20 18 17 14 14 16 15 16 14 17 19 18 20
31 28 26 22 17 11 8 7 7 6 3 3 3 5 6 7 7 10 14 15 17 15 14 15 14 16 16 15 15 16 18 17 13 14 14 12 14 14 14 16 17 16 11
31 29 25 19 16 13 12 10 7 4 3 3 5 5 7 7 7 10 12 15 13 15 17 17 17 14 14 14 14 14 15 15 15 14 16 15 14 14 13 15 13 14 16
31 27 23 19 15 15 14 10 7 9 7 6 5 4 5 6 10 9 10 12 13 15 16 18 16 17 16 15 15 15 13 14 14 14 15 15 15 19 20 18 14 12 13
32 28 24 20 18 16 15 12 12 10 8 6 4 3 3 4 7 8 9 9 11 13 16 16 12 17 19 14 14 14 13 15 16 16 18 21 19 21 19 16 14 14 15
29 27 26 21 20 17 17 13 11 7 4 4 4 3 2 3 5 6 7 10 12 14 14 11 9 15 17 15 15 16 16 18 20 21 21 21 20 19 22 18 16 17 19
29 27 25 22 20 18 13 10 8 6 5 2 1 1 1 2 3 6 9 13 16 13 10 8 7 12 15 15 18 18 17 19 20 19 20 20 21 21 22 20 19 14 14
30 27 24 21 20 15 14 9 8 7 7 6 5 3 3 2 2 6 10 14 15 9 8 6 7 11 13 15 17 16 16 19 22 20 18 19 20 21 20 19 18 15 10
27 26 24 20 18 15 12 10 9 9 9 10 9 8 7 7 7 8 11 11 6 7 7 6 6 10 12 12 15 15 15 19 21 19 17 17 17 19 19 19 17 14 12
27 25 24 20 17 14 12 10 8 9 9 11 13 13 13 10 9 10 12 8 4 3 5 4 6 8 10 11 12 15 15 18 18 18 17 17 17 16 19 18 16 16 17
23 24 24 23 19 13 8 8 10 11 12 12 11 13 14 16 12 10 6 3 3 3 4 5 5 8 9 10 10 13 16 17 18 17 16 16 17 14 16 17 14 14 14
23 23 22 18 15 10 7 8 9 9 10 12 7 8 8 8 8 6 5 6 6 5 4 5 5 6 7 7 7 10 13 16 16 15 14 14 15 14 12 14 13 11 12
24 22 19 16 13 10 10 10 9 8 6 7 11 10 7 7 9 8 8 9 9 8 7 6 5 5 4 4 6 9 11 15 17 16 15 14 13 11 10 11 14 14 13
22 19 17 14 13 12 9 12 10 9 7 8 12 10 12 11 11 10 10 12 12 12 11 10 8 7 5 5 6 8 9 10 14 15 15 14 13 12 9 9 11 12 12
21 15 15 15 12 11 11 13 11 12 10 10 12 13 16 18 16 15 14 14 15 15 15 15 15 13 11 11 11 12 13 12 11 14 15 15 14 12 9 10 14 14 14
18 12 12 13 12 11 11 12 13 13 14 15 16 15 16 19 20 18 17 17 16 18 18 19 20 21 19 17 17 18 18 15 12 11 12 13 14 13 10 12 15 15 15
18 14 11 9 7 6 10 15 20 17 16 16 16 17 18 17 18 18 17 17 20 21 22 23 24 25 25 24 22 23 23 20 16 13 12 12 13 13 13 13 14 15 17
17 17 16 13 11 8 6 9 16 18 16 17 18 18 17 18 20 20 19 20 20 22 24 24 26 28 28 29 28 28 28 23 20 14 13 12 13 14 16 17 16 16 16
20 19 17 16 15 11 11 11 12 15 17 17 17 17 18 19 22 21 21 21 22 24 26 27 28 30 32 33 31 30 29 28 23 16 15 14 13 16 18 18 17 15 15
Wind_Direction
178 174 174 171 172 172 169 156 144 118 74 52 46 37 26 13 14 10 7 0 1 4 2 359 359 355 346 347 354 5 14 7 309 318 329 344 349 347 343 340 346 352 358
181 177 175 180 180 169 163 148 129 103 75 66 46 27 18 9 5 14 16 10 3 356 353 356 357 353 348 351 356 2 355 356 327 309 330 342 344 341 337 339 337 338 347
180 179 178 172 168 153 141 127 114 84 79 41 32 23 23 25 23 22 14 3 358 357 1 7 4 0 360 353 346 351 352 350 355 326 326 330 336 343 344 335 334 336 339
183 182 173 171 159 144 128 117 123 108 66 44 31 34 31 33 20 9 6 360 356 4 6 5 358 352 350 351 353 351 346 340 338 337 330 328 336 336 336 338 332 328 324
181 175 165 154 146 135 128 123 122 90 53 42 46 34 29 18 17 13 5 6 6 2 357 351 347 346 345 352 350 346 342 337 335 338 336 330 332 335 338 331 323 324 319
169 160 152 152 149 143 148 131 110 75 51 39 26 13 14 20 17 10 6 360 357 1 360 349 341 339 343 345 342 337 349 347 343 336 329 326 326 328 333 325 326 319 322
160 155 158 156 150 144 135 123 98 82 82 82 56 12 6 18 10 8 3 2 1 356 349 350 353 357 341 339 343 339 339 342 339 318 319 327 323 331 328 327 328 326 296
150 157 159 152 146 140 133 114 98 99 101 106 79 67 57 25 6 1 358 1 360 358 358 353 350 349 348 337 334 338 340 339 340 341 330 334 334 335 329 324 322 321 326
156 158 156 151 143 135 129 127 124 116 95 122 93 90 42 26 360 356 354 357 2 7 7 359 352 347 347 345 341 337 334 337 351 356 349 337 337 333 338 336 338 336 323
157 157 154 150 148 148 147 138 121 80 60 120 121 77 42 29 5 351 356 353 357 356 4 16 16 16 29 30 23 17 13 13 12 5 356 359 4 356 345 340 333 330 323
158 153 152 151 151 149 141 128 113 110 85 101 107 54 41 30 16 13 4 6 2 359 7 12 23 26 19 16 22 26 23 15 10 3 4 357 357 353 354 351 348 330 318
158 157 156 155 151 149 141 123 122 110 92 85 64 50 26 16 15 14 14 17 13 10 9 8 30 17 6 4 18 26 30 30 25 27 29 19 9 358 351 352 358 350 346
159 160 161 158 152 153 150 144 135 135 111 78 60 64 41 32 34 37 33 24 16 7 8 18 29 18 16 28 31 32 36 36 30 27 19 14 11 15 22 15 10 14 26
162 162 162 160 157 158 165 174 180 189 203 204 5 13 303 346 26 35 24 12 1 357 356 5 23 19 25 30 29 31 36 35 28 19 13 14 18 22 24 24 19 15 22
168 165 164 165 167 165 178 190 209 233 246 243 252 282 261 295 12 3 357 357 354 10 7 11 11 9 9 17 20 26 29 24 19 13 8 10 16 17 19 20 18 20 45
171 171 168 164 171 179 191 209 234 253 254 248 250 262 275 270 295 321 333 343 7 5 9 9 6 3 6 6 9 11 13 13 12 11 12 11 12 16 14 22 30 38 49
173 176 177 178 182 184 203 216 237 242 259 256 248 249 259 273 285 303 310 315 305 334 3 3 359 358 0 2 4 5 3 4 4 10 14 12 9 16 23 29 42 54 43
176 176 183 190 194 192 202 231 251 261 269 271 269 253 247 262 281 290 290 251 265 293 336 333 342 354 356 358 2 7 6 2 4 7 9 10 11 12 13 19 24 19 9
176 171 173 186 190 195 227 253 262 254 255 271 238 233 222 253 252 253 236 249 258 260 286 321 325 340 353 355 353 350 354 0 1 2 5 5 7 6 3 8 10 14 6
173 173 180 187 191 213 232 252 215 213 224 234 220 228 220 235 221 228 239 247 253 258 265 281 302 304 319 328 331 332 338 353 1 3 2 1 1 2 359 358 2 355 350
175 177 187 206 214 208 221 209 211 214 226 253 233 236 226 239 242 246 253 251 257 259 265 264 271 274 286 290 299 307 316 330 350 357 359 360 357 352 352 353 353 352 352
181 180 194 207 207 216 226 221 222 217 234 236 237 240 233 239 248 255 262 263 261 267 265 266 265 267 270 277 285 288 293 301 329 348 354 355 355 349 337 342 346 346 348
185 184 190 201 213 231 245 232 228 232 239 239 251 249 246 246 251 258 264 264 268 266 269 267 269 268 271 274 276 280 283 287 296 319 341 355 354 347 331 328 334 333 336
185 194 198 190 200 234 245 237 237 249 257 248 256 254 257 261 254 260 264 271 270 273 273 271 272 275 276 276 277 275 276 278 277 293 313 330 339 338 325 314 319 321 322
200 209 215 219 225 236 252 253 243 246 256 256 260 258 261 265 257 261 264 269 274 274 277 280 277 277 277 278 276 276 275 271 268 276 295 312 326 332 325 313 313 316 318
208 211 220 227 231 245 261 268 268 256 252 254 254 257 266 272 260 267 271 272 275 274 276 281 285 286 284 280 281 277 275 268 257 262 277 295 313 326 319 311 310 313 314